Time,TemperatureF,DewpointF,PressureIn,WindDirection,WindDirectionDegrees,WindSpeedMPH,WindSpeedGustMPH,Humidity,HourlyPrecipIn,Conditions,Clouds,dailyrainin,SoftwareType,DateUTC
2013-01-29 00:01:00,6.0,6.0,-100.00,WSW,238,3.0,10.0,99,-99.99,,,-99.99,,2013-01-29 07:01:00,
2013-01-29 00:11:00,6.0,6.0,-100.00,WSW,238,3.0,10.0,99,-99.99,,,-99.99,,2013-01-29 07:11:00,
2013-01-29 00:21:00,6.0,6.0,-100.00,ESE,120,1.0,3.0,99,-99.99,,,-99.99,,2013-01-29 07:21:00,
2013-01-29 00:31:00,6.0,6.0,-100.00,ESE,120,1.0,3.0,99,-99.99,,,-99.99,,2013-01-29 07:31:00,
2013-01-29 00:41:00,6.0,6.0,-100.00,ESE,120,1.0,3.0,99,-99.99,,,-99.99,,2013-01-29 07:41:00,
2013-01-29 01:31:00,2.0,2.0,-100.00,South,180,1.0,1.0,98,-99.99,,,-99.99,,2013-01-29 08:31:00,
2013-01-29 01:41:00,2.0,2.0,-100.00,South,180,1.0,1.0,98,-99.99,,,-99.99,,2013-01-29 08:41:00,
2013-01-29 01:52:00,3.0,3.0,-100.00,South,174,1.0,1.0,98,-99.99,,,-99.99,,2013-01-29 08:52:00,
2013-01-29 02:01:00,3.0,3.0,-100.00,SSE,162,1.0,2.0,99,-99.99,,,-99.99,,2013-01-29 09:01:00,
2013-01-29 02:11:00,3.0,3.0,-100.00,SSE,162,1.0,2.0,99,-99.99,,,-99.99,,2013-01-29 09:11:00,
2013-01-29 02:21:00,4.0,4.0,-100.00,SSE,160,2.0,2.0,98,-99.99,,,-99.99,,2013-01-29 09:21:00,
2013-01-29 02:31:00,4.0,4.0,-100.00,SSE,162,2.0,2.0,98,-99.99,,,-99.99,,2013-01-29 09:31:00,
2013-01-29 02:42:00,4.0,4.0,-100.00,SSE,162,2.0,2.0,98,-99.99,,,-99.99,,2013-01-29 09:42:00,
2013-01-29 02:51:00,3.0,3.0,-100.00,South,173,1.0,2.0,98,-99.99,,,-99.99,,2013-01-29 09:51:00,
2013-01-29 03:01:00,3.0,3.0,-100.00,South,173,1.0,2.0,98,-99.99,,,-99.99,,2013-01-29 10:01:00,
2013-01-29 03:11:00,3.0,3.0,-100.00,South,173,1.0,2.0,98,-99.99,,,-99.99,,2013-01-29 10:11:00,
2013-01-29 03:21:00,3.0,3.0,-100.00,South,178,1.0,4.0,98,-99.99,,,-99.99,,2013-01-29 10:21:00,
2013-01-29 03:32:00,3.0,3.0,-100.00,South,178,1.0,4.0,98,-99.99,,,-99.99,,2013-01-29 10:32:00,
2013-01-29 03:41:00,3.0,3.0,-100.00,South,178,1.0,4.0,98,-99.99,,,-99.99,,2013-01-29 10:41:00,
2013-01-29 03:51:00,3.0,3.0,-100.00,East,96,0.0,2.0,98,-99.99,,,-99.99,,2013-01-29 10:51:00,
2013-01-29 04:01:00,3.0,3.0,-100.00,SE,140,1.0,2.0,99,-99.99,,,-99.99,,2013-01-29 11:01:00,
2013-01-29 04:11:00,3.0,3.0,-100.00,SE,140,1.0,2.0,99,-99.99,,,-99.99,,2013-01-29 11:11:00,
2013-01-29 04:21:00,4.0,4.0,-100.00,SE,141,1.0,2.0,98,-99.99,,,-99.99,,2013-01-29 11:21:00,
2013-01-29 04:31:00,4.0,4.0,-100.00,SE,129,0.0,1.0,98,-99.99,,,-99.99,,2013-01-29 11:31:00,
2013-01-29 04:42:00,4.0,4.0,-100.00,SE,129,0.0,1.0,98,-99.99,,,-99.99,,2013-01-29 11:42:00,
2013-01-29 04:52:00,4.0,4.0,-100.00,ESE,119,0.0,2.0,98,-99.99,,,-99.99,,2013-01-29 11:52:00,
2013-01-29 05:02:00,5.0,5.0,-100.00,SE,145,0.0,1.0,99,-99.99,,,-99.99,,2013-01-29 12:02:00,
2013-01-29 05:12:00,5.0,5.0,-100.00,SE,145,0.0,1.0,99,-99.99,,,-99.99,,2013-01-29 12:12:00,
2013-01-29 05:22:00,6.0,6.0,-100.00,SSE,167,1.0,1.0,99,-99.99,,,-99.99,,2013-01-29 12:22:00,
2013-01-29 05:32:00,6.0,6.0,-100.00,South,176,1.0,2.0,99,-99.99,,,-99.99,,2013-01-29 12:32:00,
2013-01-29 05:42:00,6.0,6.0,-100.00,South,176,1.0,2.0,99,-99.99,,,-99.99,,2013-01-29 12:42:00,
2013-01-29 05:52:00,5.0,5.0,-100.00,South,186,1.0,1.0,99,-99.99,,,-99.99,,2013-01-29 12:52:00,
2013-01-29 06:01:00,6.0,6.0,-100.00,SSE,157,0.0,1.0,99,-99.99,,,-99.99,,2013-01-29 13:01:00,
2013-01-29 06:11:00,6.0,6.0,-100.00,SSE,157,0.0,1.0,99,-99.99,,,-99.99,,2013-01-29 13:11:00,
2013-01-29 06:22:00,6.0,6.0,-100.00,SSE,161,1.0,2.0,99,-99.99,,,-99.99,,2013-01-29 13:22:00,
2013-01-29 06:31:00,7.0,7.0,-100.00,East,96,1.0,2.0,100,-99.99,,,-99.99,,2013-01-29 13:31:00,
2013-01-29 06:42:00,7.0,7.0,-100.00,East,96,1.0,2.0,100,-99.99,,,-99.99,,2013-01-29 13:42:00,
2013-01-29 06:52:00,8.0,8.0,-100.00,NE,52,1.0,3.0,100,-99.99,,,-99.99,,2013-01-29 13:52:00,
2013-01-29 07:01:00,8.0,8.0,-100.00,WSW,239,0.0,2.0,100,-99.99,,,-99.99,,2013-01-29 14:01:00,
2013-01-29 07:12:00,8.0,8.0,-100.00,WSW,239,0.0,2.0,100,-99.99,,,-99.99,,2013-01-29 14:12:00,
2013-01-29 07:21:00,8.0,8.0,-100.00,NNE,23,1.0,3.0,100,-99.99,,,-99.99,,2013-01-29 14:21:00,
2013-01-29 07:32:00,9.0,9.0,-100.00,NNW,330,1.0,4.0,100,-99.99,,,-99.99,,2013-01-29 14:32:00,
2013-01-29 07:43:00,9.0,9.0,-100.00,NNW,330,1.0,4.0,100,-99.99,,,-99.99,,2013-01-29 14:43:00,
2013-01-29 07:52:00,9.0,9.0,-100.00,NNW,334,1.0,2.0,100,-99.99,,,-99.99,,2013-01-29 14:52:00,
2013-01-29 08:02:00,9.0,9.0,-100.00,NNW,347,1.0,2.0,100,-99.99,,,-99.99,,2013-01-29 15:02:00,
2013-01-29 08:11:00,9.0,9.0,-100.00,NNW,347,1.0,2.0,100,-99.99,,,-99.99,,2013-01-29 15:11:00,
2013-01-29 08:22:00,9.0,9.0,-100.00,NW,326,0.0,4.0,100,-99.99,,,-99.99,,2013-01-29 15:22:00,
2013-01-29 08:32:00,9.0,9.0,-100.00,North,4,0.0,2.0,100,-99.99,,,-99.99,,2013-01-29 15:32:00,
2013-01-29 08:42:00,9.0,9.0,-100.00,North,4,0.0,2.0,100,-99.99,,,-99.99,,2013-01-29 15:42:00,
2013-01-29 08:52:00,10.0,10.0,-100.00,NNW,335,0.0,2.0,100,-99.99,,,-99.99,,2013-01-29 15:52:00,
2013-01-29 09:02:00,10.0,10.0,-100.00,NNW,339,0.0,1.0,100,-99.99,,,-99.99,,2013-01-29 16:02:00,
2013-01-29 09:12:00,10.0,10.0,-100.00,NNW,339,0.0,1.0,100,-99.99,,,-99.99,,2013-01-29 16:12:00,
2013-01-29 09:22:00,10.0,10.0,-100.00,NE,34,1.0,3.0,100,-99.99,,,-99.99,,2013-01-29 16:22:00,
2013-01-29 09:32:00,11.0,11.0,-100.00,NW,322,0.0,2.0,100,-99.99,,,-99.99,,2013-01-29 16:32:00,
2013-01-29 09:42:00,11.0,11.0,-100.00,NW,322,0.0,2.0,100,-99.99,,,-99.99,,2013-01-29 16:42:00,
2013-01-29 09:52:00,12.0,12.0,-100.00,North,354,1.0,2.0,100,-99.99,,,-99.99,,2013-01-29 16:52:00,
2013-01-29 10:02:00,14.0,14.0,-100.00,North,1,1.0,3.0,99,-99.99,,,-99.99,,2013-01-29 17:02:00,
2013-01-29 10:12:00,14.0,14.0,-100.00,North,1,1.0,3.0,99,-99.99,,,-99.99,,2013-01-29 17:12:00,
2013-01-29 10:21:00,14.0,14.0,-100.00,North,358,1.0,3.0,99,-99.99,,,-99.99,,2013-01-29 17:21:00,
2013-01-29 10:32:00,13.0,13.0,-100.00,North,353,1.0,3.0,99,-99.99,,,-99.99,,2013-01-29 17:32:00,
2013-01-29 10:42:00,13.0,13.0,-100.00,North,353,1.0,3.0,99,-99.99,,,-99.99,,2013-01-29 17:42:00,
2013-01-29 10:52:00,14.0,14.0,-100.00,North,350,1.0,2.0,98,-99.99,,,-99.99,,2013-01-29 17:52:00,
2013-01-29 11:03:00,14.0,14.0,-100.00,North,4,1.0,2.0,99,-99.99,,,-99.99,,2013-01-29 18:03:00,
2013-01-29 11:12:00,14.0,14.0,-100.00,North,4,1.0,2.0,99,-99.99,,,-99.99,,2013-01-29 18:12:00,
2013-01-29 11:22:00,14.0,14.0,-100.00,North,4,1.0,2.0,99,-99.99,,,-99.99,,2013-01-29 18:22:00,
2013-01-29 11:33:00,14.0,14.0,-100.00,NNW,339,1.0,3.0,98,-99.99,,,-99.99,,2013-01-29 18:33:00,
2013-01-29 11:42:00,14.0,14.0,-100.00,NNW,339,1.0,3.0,98,-99.99,,,-99.99,,2013-01-29 18:42:00,
2013-01-29 11:51:00,14.0,14.0,-100.00,North,9,1.0,3.0,98,-99.99,,,-99.99,,2013-01-29 18:51:00,
2013-01-29 12:01:00,14.0,13.0,-100.00,North,5,2.0,4.0,97,-99.99,,,-99.99,,2013-01-29 19:01:00,
2013-01-29 12:11:00,14.0,13.0,-100.00,North,5,2.0,4.0,97,-99.99,,,-99.99,,2013-01-29 19:11:00,
2013-01-29 12:22:00,13.0,13.0,-100.00,North,358,1.0,3.0,98,-99.99,,,-99.99,,2013-01-29 19:22:00,
2013-01-29 12:32:00,14.0,13.0,-100.00,North,352,2.0,6.0,97,-99.99,,,-99.99,,2013-01-29 19:32:00,
2013-01-29 12:42:00,14.0,13.0,-100.00,North,352,2.0,6.0,97,-99.99,,,-99.99,,2013-01-29 19:42:00,
2013-01-29 12:52:00,14.0,13.0,-100.00,North,3,3.0,8.0,97,-99.99,,,-99.99,,2013-01-29 19:52:00,
2013-01-29 13:01:00,14.0,13.0,-100.00,North,3,2.0,6.0,97,-99.99,,,-99.99,,2013-01-29 20:01:00,
2013-01-29 13:12:00,14.0,13.0,-100.00,North,3,2.0,6.0,97,-99.99,,,-99.99,,2013-01-29 20:12:00,
2013-01-29 13:22:00,14.0,13.0,-100.00,North,5,2.0,5.0,97,-99.99,,,-99.99,,2013-01-29 20:22:00,
2013-01-29 13:32:00,14.0,14.0,-100.00,North,9,2.0,8.0,98,-99.99,,,-99.99,,2013-01-29 20:32:00,
2013-01-29 13:42:00,14.0,14.0,-100.00,North,9,2.0,8.0,98,-99.99,,,-99.99,,2013-01-29 20:42:00,
2013-01-29 13:53:00,14.0,13.0,-100.00,North,3,3.0,11.0,96,-99.99,,,-99.99,,2013-01-29 20:53:00,
2013-01-29 14:02:00,14.0,13.0,-100.00,North,0,3.0,8.0,96,-99.99,,,-99.99,,2013-01-29 21:02:00,
2013-01-29 14:12:00,14.0,13.0,-100.00,North,0,3.0,8.0,96,-99.99,,,-99.99,,2013-01-29 21:12:00,
2013-01-29 14:22:00,13.0,12.0,-100.00,North,9,3.0,7.0,96,-99.99,,,-99.99,,2013-01-29 21:22:00,
2013-01-29 14:32:00,13.0,12.0,-100.00,NNE,23,2.0,6.0,96,-99.99,,,-99.99,,2013-01-29 21:32:00,
2013-01-29 14:42:00,13.0,12.0,-100.00,NNE,23,2.0,6.0,96,-99.99,,,-99.99,,2013-01-29 21:42:00,
2013-01-29 14:52:00,14.0,13.0,-100.00,NNE,20,2.0,5.0,96,-99.99,,,-99.99,,2013-01-29 21:52:00,
2013-01-29 15:02:00,14.0,13.0,-100.00,NNE,26,3.0,8.0,96,-99.99,,,-99.99,,2013-01-29 22:02:00,
2013-01-29 15:12:00,14.0,13.0,-100.00,NNE,26,3.0,8.0,96,-99.99,,,-99.99,,2013-01-29 22:12:00,
2013-01-29 15:21:00,13.0,12.0,-100.00,North,1,2.0,4.0,97,-99.99,,,-99.99,,2013-01-29 22:21:00,
2013-01-29 15:32:00,13.0,12.0,-100.00,North,1,2.0,4.0,97,-99.99,,,-99.99,,2013-01-29 22:32:00,
2013-01-29 15:42:00,13.0,12.0,-100.00,North,1,2.0,4.0,97,-99.99,,,-99.99,,2013-01-29 22:42:00,
2013-01-29 15:53:00,13.0,12.0,-100.00,NNW,347,2.0,6.0,97,-99.99,,,-99.99,,2013-01-29 22:53:00,
2013-01-29 16:02:00,12.0,11.0,-100.00,North,10,2.0,6.0,97,-99.99,,,-99.99,,2013-01-29 23:02:00,
2013-01-29 16:11:00,12.0,11.0,-100.00,North,10,2.0,6.0,97,-99.99,,,-99.99,,2013-01-29 23:11:00,
2013-01-29 16:22:00,13.0,12.0,-100.00,North,10,2.0,5.0,97,-99.99,,,-99.99,,2013-01-29 23:22:00,
2013-01-29 16:32:00,12.0,11.0,-100.00,NNE,13,2.0,7.0,97,-99.99,,,-99.99,,2013-01-29 23:32:00,
2013-01-29 16:42:00,12.0,11.0,-100.00,NNE,13,2.0,7.0,97,-99.99,,,-99.99,,2013-01-29 23:42:00,
2013-01-29 16:52:00,11.0,10.0,-100.00,North,2,2.0,4.0,97,-99.99,,,-99.99,,2013-01-29 23:52:00,
2013-01-29 17:02:00,11.0,10.0,-100.00,North,11,2.0,5.0,96,-99.99,,,-99.99,,2013-01-30 00:02:00,
2013-01-29 17:11:00,11.0,10.0,-100.00,North,11,2.0,5.0,96,-99.99,,,-99.99,,2013-01-30 00:11:00,
2013-01-29 17:22:00,11.0,10.0,-100.00,North,0,2.0,5.0,96,-99.99,,,-99.99,,2013-01-30 00:22:00,
2013-01-29 17:32:00,11.0,10.0,-100.00,NNE,20,2.0,5.0,96,-99.99,,,-99.99,,2013-01-30 00:32:00,
2013-01-29 17:42:00,11.0,10.0,-100.00,NNE,20,2.0,5.0,96,-99.99,,,-99.99,,2013-01-30 00:42:00,
2013-01-29 17:52:00,10.0,9.0,-100.00,North,353,3.0,7.0,96,-99.99,,,-99.99,,2013-01-30 00:52:00,
2013-01-29 18:01:00,10.0,9.0,-100.00,North,2,3.0,6.0,96,-99.99,,,-99.99,,2013-01-30 01:01:00,
2013-01-29 18:11:00,10.0,9.0,-100.00,North,2,3.0,6.0,96,-99.99,,,-99.99,,2013-01-30 01:11:00,
2013-01-29 18:22:00,10.0,9.0,-100.00,North,350,2.0,4.0,97,-99.99,,,-99.99,,2013-01-30 01:22:00,
2013-01-29 18:31:00,9.0,8.0,-100.00,North,352,3.0,6.0,97,-99.99,,,-99.99,,2013-01-30 01:31:00,
2013-01-29 18:42:00,9.0,8.0,-100.00,North,352,3.0,6.0,97,-99.99,,,-99.99,,2013-01-30 01:42:00,
2013-01-29 18:52:00,9.0,8.0,-100.00,NNE,14,3.0,8.0,96,-99.99,,,-99.99,,2013-01-30 01:52:00,
2013-01-29 19:02:00,9.0,8.0,-100.00,NNE,19,3.0,7.0,96,-99.99,,,-99.99,,2013-01-30 02:02:00,
2013-01-29 19:12:00,9.0,8.0,-100.00,NNE,19,3.0,7.0,96,-99.99,,,-99.99,,2013-01-30 02:12:00,
2013-01-29 19:21:00,9.0,8.0,-100.00,NNW,346,2.0,4.0,96,-99.99,,,-99.99,,2013-01-30 02:21:00,
2013-01-29 19:33:00,9.0,8.0,-100.00,NNE,16,3.0,7.0,95,-99.99,,,-99.99,,2013-01-30 02:33:00,
2013-01-29 19:42:00,9.0,8.0,-100.00,NNE,16,3.0,7.0,95,-99.99,,,-99.99,,2013-01-30 02:42:00,
2013-01-29 19:52:00,9.0,7.0,-100.00,NNE,15,3.0,8.0,93,-99.99,,,-99.99,,2013-01-30 02:52:00,
2013-01-29 20:02:00,9.0,7.0,-100.00,North,4,2.0,5.0,93,-99.99,,,-99.99,,2013-01-30 03:02:00,
2013-01-29 20:11:00,9.0,7.0,-100.00,North,4,2.0,5.0,93,-99.99,,,-99.99,,2013-01-30 03:11:00,
2013-01-29 20:22:00,9.0,8.0,-100.00,North,2,3.0,7.0,96,-99.99,,,-99.99,,2013-01-30 03:22:00,
2013-01-29 20:31:00,9.0,8.0,-100.00,North,354,2.0,5.0,97,-99.99,,,-99.99,,2013-01-30 03:31:00,
2013-01-29 20:42:00,9.0,8.0,-100.00,North,354,2.0,5.0,97,-99.99,,,-99.99,,2013-01-30 03:42:00,
2013-01-29 20:51:00,9.0,8.0,-100.00,NNE,22,2.0,4.0,97,-99.99,,,-99.99,,2013-01-30 03:51:00,
2013-01-29 21:02:00,9.0,8.0,-100.00,North,3,2.0,5.0,96,-99.99,,,-99.99,,2013-01-30 04:02:00,
2013-01-29 21:11:00,9.0,8.0,-100.00,North,3,2.0,5.0,96,-99.99,,,-99.99,,2013-01-30 04:11:00,
2013-01-29 21:22:00,9.0,8.0,-100.00,North,360,2.0,4.0,95,-99.99,,,-99.99,,2013-01-30 04:22:00,
2013-01-29 21:32:00,10.0,9.0,-100.00,North,7,2.0,5.0,96,-99.99,,,-99.99,,2013-01-30 04:32:00,
2013-01-29 21:41:00,10.0,9.0,-100.00,North,7,2.0,5.0,96,-99.99,,,-99.99,,2013-01-30 04:41:00,
2013-01-29 21:52:00,10.0,9.0,-100.00,North,8,2.0,6.0,96,-99.99,,,-99.99,,2013-01-30 04:52:00,
2013-01-29 22:03:00,9.0,8.0,-100.00,NNW,348,2.0,4.0,97,-99.99,,,-99.99,,2013-01-30 05:03:00,
2013-01-29 22:11:00,9.0,8.0,-100.00,NNW,348,2.0,4.0,97,-99.99,,,-99.99,,2013-01-30 05:11:00,
2013-01-29 22:22:00,9.0,9.0,-100.00,North,358,2.0,3.0,98,-99.99,,,-99.99,,2013-01-30 05:22:00,
2013-01-29 22:32:00,10.0,10.0,-100.00,North,2,1.0,3.0,98,-99.99,,,-99.99,,2013-01-30 05:32:00,
2013-01-29 22:42:00,10.0,10.0,-100.00,North,2,1.0,3.0,98,-99.99,,,-99.99,,2013-01-30 05:42:00,
2013-01-29 22:52:00,10.0,9.0,-100.00,North,356,2.0,6.0,97,-99.99,,,-99.99,,2013-01-30 05:52:00,
2013-01-29 23:02:00,11.0,10.0,-100.00,North,353,2.0,9.0,97,-99.99,,,-99.99,,2013-01-30 06:02:00,
2013-01-29 23:11:00,11.0,10.0,-100.00,North,353,2.0,9.0,97,-99.99,,,-99.99,,2013-01-30 06:11:00,
2013-01-29 23:21:00,11.0,11.0,-100.00,NNE,17,2.0,3.0,98,-99.99,,,-99.99,,2013-01-30 06:21:00,
2013-01-29 23:31:00,11.0,11.0,-100.00,NNE,17,2.0,3.0,98,-99.99,,,-99.99,,2013-01-30 06:31:00,
2013-01-29 23:41:00,11.0,11.0,-100.00,NNE,17,2.0,3.0,98,-99.99,,,-99.99,,2013-01-30 06:41:00,
2013-01-29 23:51:00,11.0,10.0,-100.00,North,353,1.0,3.0,97,-99.99,,,-99.99,,2013-01-30 06:51:00,